Ocala, FL

9:53 AM EST on November 22, 2017 (GMT -0500)
Ocala Regional-Taylor

Weather History for KOCF - September, 2013

Change the Weather History Date:

Thursday, September 26, 2013

  Actual Average Record
Temperature  
Mean Temperature 78 °F -  
Max Temperature 87 °F 83 °F 91 °F (2005)
Min Temperature 69 °F 66 °F 60 °F (2008)
Cooling Degree Days 13    
Growing Degree Days 28 (Base 50)    
Moisture  
Dew Point 68 °F    
Average Humidity 77    
Maximum Humidity 89    
Minimum Humidity 49    
Precipitation  
Precipitation 0.47 in - - ()
Sea Level Pressure  
Sea Level Pressure 29.83 in    
Wind  
Wind Speed 5 mph (NNW)    
Max Wind Speed 16 mph    
Max Gust Speed 21 mph    
Visibility 8 miles    
Events Fog    
Averages and records for this station are not official NWS values.
T = Trace of Precipitation, MM = Missing Value Source: NWS Daily Summary

Daily Weather History Graph

Daily Weather History Graph

Search for Another Location

Airport or City:

Trip Planner

Search our weather history database for the weather conditions in past years. The results will help you decide how hot, cold, wet, or windy it might be!

Date:

Astronomy

Sep. 26, 2013 Rise Set
Actual Time 7:19 AM EDT 7:20 PM EDT
Civil Twilight 6:55 AM EDT 7:43 PM EDT
Nautical Twilight 6:28 AM EDT 8:11 PM EDT
Astronomical Twilight 6:00 AM EDT 8:39 PM EDT
Moon No Moon Rise 1:47 PM EDT (9/26)
Length of Visible Light 12h 48m
Length of Day
12h 00m
Waning Gibbous, 55% of the Moon is Illuminated
Sep 26
Waning Gibbous
Sep 26
Last Quarter
Oct 4
New
Oct 11
First Quarter
Oct 18
Full

Hourly Weather History & Observations

Time (EDT) Temp. Heat Index Dew Point Humidity Pressure Visibility Wind Dir Wind Speed Gust Speed Precip Events Conditions
12:15 AM 75.2 °F - 69.8 °F 83% 29.80 in 10.0 mi South 4.6 mph - 0.01 in   Mostly Cloudy
12:35 AM 75.2 °F - 71.6 °F 89% 29.79 in 10.0 mi South 5.8 mph - 0.01 in   Mostly Cloudy
12:55 AM 75.2 °F - 71.6 °F 89% 29.80 in 10.0 mi NNE 6.9 mph - 0.01 in   Mostly Cloudy
1:15 AM 75.2 °F - 69.8 °F 83% 29.79 in 3.0 mi North 5.8 mph - 0.43 in   Scattered Clouds
1:35 AM 75.2 °F - 69.8 °F 83% 29.80 in 10.0 mi SSW 3.5 mph - 0.45 in   Mostly Cloudy
1:55 AM 75.2 °F - 69.8 °F 83% 29.79 in 10.0 mi South 3.5 mph - 0.45 in   Mostly Cloudy
2:15 AM 75.2 °F - 69.8 °F 83% 29.79 in 10.0 mi Calm Calm - N/A   Overcast
2:35 AM 75.2 °F - 69.8 °F 83% 29.78 in 10.0 mi South 3.5 mph - N/A   Overcast
2:55 AM 75.2 °F - 69.8 °F 83% 29.78 in 9.0 mi South 5.8 mph - N/A   Overcast
3:15 AM 75.2 °F - 69.8 °F 83% 29.78 in 3.0 mi South 6.9 mph - N/A   Overcast
3:35 AM 75.2 °F - 69.8 °F 83% 29.78 in 0.8 mi SSW 5.8 mph - N/A   Overcast
3:55 AM 75.2 °F - 69.8 °F 83% 29.78 in 0.8 mi South 4.6 mph - N/A   Overcast
4:15 AM 75.2 °F - 69.8 °F 83% 29.78 in 5.0 mi SSW 4.6 mph - 0.01 in   Overcast
4:35 AM 75.2 °F - 69.8 °F 83% 29.78 in 1.8 mi South 4.6 mph - 0.01 in   Overcast
4:55 AM 75.2 °F - 69.8 °F 83% 29.78 in 8.0 mi Calm Calm - 0.01 in   Overcast
5:15 AM 75.2 °F - 69.8 °F 83% 29.78 in 10.0 mi SSW 4.6 mph - N/A   Overcast
5:35 AM 75.2 °F - 69.8 °F 83% 29.78 in 9.0 mi Calm Calm - N/A   Overcast
5:55 AM 75.2 °F - 69.8 °F 83% 29.79 in 6.0 mi Calm Calm - N/A   Mostly Cloudy
6:15 AM 75.2 °F - 69.8 °F 83% 29.79 in 4.0 mi Calm Calm - N/A   Scattered Clouds
6:35 AM 73.4 °F - 69.8 °F 88% 29.80 in 3.0 mi South 3.5 mph - N/A   Clear
6:50 AM 73.4 °F - 69.8 °F 88% 29.80 in 0.5 mi Calm Calm - N/A Fog Fog
7:50 AM 73.4 °F - 69.8 °F 88% 29.81 in 3.0 mi Calm Calm - N/A   Partly Cloudy
8:50 AM 75.2 °F - 71.6 °F 89% 29.83 in 7.0 mi Calm Calm - N/A   Partly Cloudy
9:05 AM 77.0 °F - 71.6 °F 83% 29.84 in 7.0 mi West 4.6 mph - N/A   Mostly Cloudy
9:50 AM 80.6 °F 84.6 °F 71.6 °F 74% 29.85 in 8.0 mi WNW 4.6 mph - N/A   Mostly Cloudy
10:50 AM 82.4 °F 87.2 °F 71.6 °F 70% 29.86 in 10.0 mi NW 10.4 mph - N/A   Mostly Cloudy
11:50 AM 82.4 °F 87.2 °F 71.6 °F 70% 29.87 in 10.0 mi NW 10.4 mph - N/A   Mostly Cloudy
12:50 PM 84.2 °F 88.4 °F 69.8 °F 62% 29.86 in 10.0 mi NW 11.5 mph 16.1 mph N/A   Mostly Cloudy
1:50 PM 86.0 °F 89.4 °F 68.0 °F 55% 29.84 in 10.0 mi WNW 10.4 mph - N/A   Scattered Clouds
2:50 PM 86.0 °F 88.2 °F 66.2 °F 51% 29.82 in 10.0 mi NNW 6.9 mph - N/A   Scattered Clouds
3:50 PM 87.8 °F 90.4 °F 66.2 °F 49% 29.81 in 10.0 mi NW 8.1 mph - N/A   Scattered Clouds
5:50 PM 84.2 °F 87.3 °F 68.0 °F 58% 29.83 in 10.0 mi NNE 13.8 mph 20.7 mph N/A   Scattered Clouds
6:50 PM 78.8 °F - 66.2 °F 65% 29.86 in 10.0 mi North 16.1 mph - N/A   Partly Cloudy
7:55 PM 75.2 °F - 64.4 °F 69% 29.88 in 10.0 mi North 12.7 mph - N/A   Partly Cloudy
8:15 PM 73.4 °F - 64.4 °F 73% 29.89 in 10.0 mi NNE 8.1 mph - N/A   Clear
8:35 PM 73.4 °F - 64.4 °F 73% 29.89 in 10.0 mi North 8.1 mph - N/A   Clear
8:55 PM 73.4 °F - 64.4 °F 73% 29.90 in 10.0 mi NNE 6.9 mph - N/A   Clear
9:15 PM 73.4 °F - 64.4 °F 73% 29.90 in 10.0 mi NNE 4.6 mph - N/A   Clear
9:35 PM 71.6 °F - 64.4 °F 78% 29.91 in 10.0 mi NNE 4.6 mph - N/A   Clear
9:55 PM 71.6 °F - 64.4 °F 78% 29.91 in 10.0 mi North 5.8 mph - N/A   Clear
10:15 PM 71.6 °F - 64.4 °F 78% 29.91 in 10.0 mi NNE 5.8 mph - N/A   Clear
10:35 PM 71.6 °F - 64.4 °F 78% 29.91 in 10.0 mi NNE 5.8 mph - N/A   Clear
10:55 PM 71.6 °F - 62.6 °F 73% 29.91 in 10.0 mi NNE 4.6 mph - N/A   Clear
11:15 PM 69.8 °F - 62.6 °F 78% 29.91 in 10.0 mi North 5.8 mph - N/A   Clear
11:35 PM 69.8 °F - 62.6 °F 78% 29.92 in 10.0 mi North 5.8 mph - N/A   Scattered Clouds
11:55 PM 69.8 °F - 62.6 °F 78% 29.92 in 10.0 mi NNE 4.6 mph - N/A   Mostly Cloudy